Weather Roundup
Issued by NWS

Home | Current Version | Previous Version | Text Only | Print | Product List | Glossary On
Versions: 1 2 3 4 5 6 7 8 9 10 11 12 13 14 15 16 17 18 19 20 21 22 23 24 25 26 27 28 29 30 31 32 33 34 35 36 37 38 39 40 41 42 43 44 45 46 47 48 49 50
000
NZUS93 KARX 241910
HRRWXR

CURRENT HOURLY OBSERVATIONS ACROSS
MUCH OF THE UPPER MISSISSIPPI VALLEY
NATIONAL WEATHER SERVICE LA CROSSE WI
200 PM CDT SUN MAY 24 2015


...SOUTHEAST MINNESOTA...


CITY           SKY/WX    TMP DP  RH WIND       PRES   REMARKS
ROCHESTER      RAIN      58  56  93 E17       29.96F FOG
ROCHESTER/MAYO CLOUDY    58  58 100 E8        29.95F
WINONA         RAIN      59  57  94 E12       29.99F
AUSTIN         RAIN      59  55  88 E17G23    29.92F
ALBERT LEA     HVY RAIN  59  59 100 SE12G17   29.91F
DODGE CENTER   LGT RAIN  59  57  94 E14G21    29.95F
PRESTON        LGT RAIN  57  55  94 E15G22    29.95F
OWATONNA       LGT RAIN  61  57  88 E12       29.93F
FARIBAULT      RAIN      61  57  88 E13       29.95F
$$

...ELSEWHERE IN MINNESOTA...


CITY           SKY/WX    TMP DP  RH WIND       PRES   REMARKS
MINNEAPOLIS    LGT RAIN  61  57  87 E13       29.97F
INTNL FALLS    MOSUNNY   78  43  28 NE5       29.99F
DULUTH         CLOUDY    69  43  38 E5        30.04F
RED WING       LGT RAIN  61  57  88 E9G16     29.97F
REDWOOD FALLS  LGT RAIN  61  58  90 E9G22     29.92F FOG
MANKATO        CLOUDY    61  57  88 E12       29.92F
WORTHINGTON    CLOUDY    61  55  82 E13       29.87F
FAIRMONT       CLOUDY    59  54  82 E13       29.88F
$$

...SOUTHWEST WISCONSIN...


CITY           SKY/WX    TMP DP  RH WIND       PRES   REMARKS
LA CROSSE      RAIN      61  58  90 E9        30.00F FOG
PRAIRIE DU CHI LGT RAIN  59  56  89 E9        29.99F
BOSCOBEL       LGT RAIN  61  57  87 NE7       30.01F FOG
LONE ROCK      LGT RAIN  60  57  89 E13       30.02F
PLATTEVILLE    CLOUDY    60  58  94 E21       30.00F
FORT MC COY    RAIN      58  56  94 E6        30.05F
CAMP DOUGLAS   LGT RAIN  59  59 100 E12       30.04F FOG
VIROQUA        CLOUDY    57  57 100 E15       30.01F
WIS DELLS      RAIN      58  56  91 E8        30.06F
$$

...ELSEWHERE IN WISCONSIN...


CITY           SKY/WX    TMP DP  RH WIND       PRES   REMARKS
MILWAUKEE      LGT RAIN  61  54  77 NE6       30.12F
MADISON        LGT RAIN  60  56  86 E12       30.06F
GREEN BAY      LGT RAIN  63  57  81 S12       30.14F
EAU CLAIRE     LGT RAIN  61  57  87 SE7       30.03F
BLACK RVR FLS  LGT RAIN  60  59  98 E8        30.03F
MEDFORD        RAIN      59  56  89 SE7       30.08F
WAUSAU         LGT RAIN  62  55  77 S8        30.08F
WIS RAPIDS     LGT RAIN  59  55  87 SE9       30.09F
MARSHFIELD     RAIN      60  54  80 SE12      30.08F
RICE LAKE      DRIZZLE   64  54  70 SE14      30.05F
$$

...NORTHEAST IOWA...


CITY           SKY/WX    TMP DP  RH WIND       PRES   REMARKS
DECORAH        CLOUDY    59  59 100 E16G26    29.94F FOG
MASON CITY     LGT RAIN  60  58  92 SE16G29   29.90F FOG
CHARLES CITY   CLOUDY    59  59 100 SE13G23   29.92F FOG
OELWEIN        CLOUDY    61  59  94 SE20G29   29.94F
$$

...ELSEWHERE IN IOWA...


CITY           SKY/WX    TMP DP  RH WIND       PRES   REMARKS
DES MOINES     CLOUDY    67  63  87 SE10      29.85F
IOWA CITY      CLOUDY    66  63  90 E7        29.94F
FORT DODGE     CLOUDY    61  57  88 SE8       29.86S
$$

...NORTHERN ILLINOIS...


CITY           SKY/WX    TMP DP  RH WIND       PRES   REMARKS
CHICAGO-OHARE  CLOUDY    70  52  52 E13       30.06F
CHICAGO-MIDWAY CLOUDY    74  55  51 E10       30.06F
MOLINE         CLOUDY    71  67  87 E6        29.93F
ROCKFORD       CLOUDY    69  58  67 E13       30.02F
PEORIA         CLOUDY    76  67  73 S9        29.99F
$$

NOTE: "FAIR" INDICATES FEW OR NO CLOUDS BELOW 12,000 FEET WITH NO
SIGNIFICANT WEATHER AND/OR OBSTRUCTIONS TO VISIBILITY. WIND
SPEEDS ARE IN MILES-PER-HOUR.



USA.gov is the U.S. government's official web portal to all federal, state and local government web resources and services.